• In Uzbekistan
  • List of Countries
  • For 7 days
  • Water Temperature
  • Satellite Maps
  • Weather Map
  • Weather Widgets
  • user-avatar
    Login

    Hourly Weather Riga

    Today, 20 August, Monday

    Time Temperature Precipitation Wind Pressure Humidity
    00:00 +17°C° 0.1 mm 3 mps 760 mmHg 94%
    01:00 +17°C° 0.1 mm 3 mps 760 mmHg 95%
    02:00 +17°C° 0 mm 3 mps 760 mmHg 96%
    03:00 +17°C° 0.1 mm 3 mps 759 mmHg 96%
    04:00 +17°C° 0.1 mm 3 mps 759 mmHg 96%
    05:00 +17°C° 0.1 mm 3 mps 759 mmHg 96%
    06:00 +17°C° 0.1 mm 3 mps 758 mmHg 94%
    07:00 +18°C° 0.1 mm 4 mps 758 mmHg 92%
    08:00 +18°C° 0 mm 4 mps 758 mmHg 90%
    09:00 +20°C° 0 mm 4 mps 758 mmHg 83%
    10:00 +21°C° 0 mm 4 mps 757 mmHg 75%
    11:00 +23°C° 0 mm 4 mps 757 mmHg 68%
    12:00 +25°C° 0.1 mm 5 mps 756 mmHg 64%
    13:00 +26°C° 0.1 mm 5 mps 755 mmHg 60%
    14:00 +27°C° 0.1 mm 5 mps 755 mmHg 56%
    15:00 +26°C° 0.6 mm 5 mps 754 mmHg 63%
    16:00 +25°C° 0.6 mm 5 mps 754 mmHg 70%
    17:00 +22°C° 0.6 mm 5 mps 753 mmHg 76%
    18:00 +21°C° 0.2 mm 5 mps 753 mmHg 80%
    19:00 +20°C° 0.2 mm 5 mps 753 mmHg 84%
    20:00 +19°C° 0.2 mm 5 mps 752 mmHg 88%
    21:00 +19°C° 0.1 mm 5 mps 752 mmHg 90%
    22:00 +19°C° 0.1 mm 5 mps 753 mmHg 91%
    23:00 +17°C° 0.1 mm 5 mps 753 mmHg 92%

    Tomorrow, 21 August, Tuesday

    Time Temperature Precipitation Wind Pressure Humidity
    00:00 +16°C° 0.1 mm 5 mps 753 mmHg 92%
    01:00 +16°C° 0.1 mm 5 mps 753 mmHg 92%
    02:00 +15°C° 0.1 mm 4 mps 754 mmHg 93%
    03:00 +14°C° 0 mm 4 mps 754 mmHg 93%
    04:00 +14°C° 0 mm 4 mps 755 mmHg 93%
    05:00 +13°C° 0 mm 4 mps 755 mmHg 92%
    06:00 +14°C° 0 mm 4 mps 755 mmHg 86%
    07:00 +15°C° 0 mm 5 mps 756 mmHg 80%
    08:00 +16°C° 0 mm 5 mps 757 mmHg 74%
    09:00 +17°C° 0 mm 5 mps 757 mmHg 68%
    10:00 +19°C° 0 mm 5 mps 758 mmHg 62%
    11:00 +20°C° 0 mm 6 mps 758 mmHg 55%
    12:00 +20°C° 0.1 mm 6 mps 759 mmHg 54%
    13:00 +20°C° 0.1 mm 6 mps 759 mmHg 53%
    14:00 +21°C° 0.1 mm 6 mps 759 mmHg 51%
    15:00 +20°C° 0 mm 6 mps 760 mmHg 53%
    16:00 +20°C° 0 mm 6 mps 760 mmHg 55%
    17:00 +19°C° 0 mm 6 mps 760 mmHg 57%
    18:00 +17°C° 0 mm 6 mps 761 mmHg 63%
    19:00 +15°C° 0 mm 5 mps 761 mmHg 68%
    20:00 +14°C° 0 mm 5 mps 762 mmHg 73%
    21:00 +13°C° 0 mm 5 mps 762 mmHg 73%
    22:00 +13°C° 0 mm 4 mps 763 mmHg 74%
    23:00 +12°C° 0 mm 4 mps 763 mmHg 74%

    Day after tomorrow, 22 August, Wednesday

    Time Temperature Precipitation Wind Pressure Humidity
    00:00 +11°C° 0 mm 4 mps 764 mmHg 74%
    01:00 +11°C° 0 mm 4 mps 764 mmHg 75%
    02:00 +11°C° 0 mm 4 mps 764 mmHg 76%
    03:00 +11°C° 0 mm 3 mps 764 mmHg 77%
    04:00 +10°C° 0 mm 3 mps 765 mmHg 78%
    05:00 +10°C° 0 mm 3 mps 765 mmHg 80%
    06:00 +12°C° 0 mm 3 mps 765 mmHg 75%
    07:00 +13°C° 0 mm 3 mps 765 mmHg 70%
    08:00 +16°C° 0 mm 3 mps 766 mmHg 65%
    09:00 +17°C° 0 mm 3 mps 766 mmHg 60%
    10:00 +18°C° 0 mm 3 mps 766 mmHg 54%
    11:00 +20°C° 0 mm 2 mps 766 mmHg 49%
    12:00 +20°C° 0 mm 2 mps 766 mmHg 49%
    13:00 +20°C° 0 mm 2 mps 766 mmHg 48%
    14:00 +21°C° 0 mm 2 mps 766 mmHg 48%
    15:00 +21°C° 0 mm 2 mps 766 mmHg 49%
    16:00 +21°C° 0 mm 2 mps 765 mmHg 50%
    17:00 +21°C° 0 mm 2 mps 765 mmHg 51%
    18:00 +19°C° 0 mm 2 mps 765 mmHg 58%
    19:00 +17°C° 0 mm 2 mps 765 mmHg 65%
    20:00 +16°C° 0 mm 2 mps 765 mmHg 72%
    21:00 +14°C° 0 mm 3 mps 765 mmHg 73%
    22:00 +13°C° 0 mm 3 mps 765 mmHg 75%
    23:00 +13°C° 0 mm 3 mps 765 mmHg 76%

    23 August, Thursday

    Time Temperature Precipitation Wind Pressure Humidity
    00:00 +13°C° 0 mm 3 mps 765 mmHg 76%
    01:00 +12°C° 0 mm 4 mps 765 mmHg 76%
    02:00 +12°C° 0 mm 4 mps 764 mmHg 76%
    03:00 +12°C° 0 mm 4 mps 764 mmHg 75%
    04:00 +12°C° 0 mm 5 mps 764 mmHg 75%
    05:00 +12°C° 0 mm 5 mps 763 mmHg 74%
    06:00 +13°C° 0 mm 5 mps 763 mmHg 71%
    07:00 +14°C° 0 mm 5 mps 763 mmHg 68%
    08:00 +15°C° 0 mm 5 mps 763 mmHg 65%
    09:00 +17°C° 0 mm 5 mps 762 mmHg 62%
    10:00 +20°C° 0 mm 5 mps 762 mmHg 58%
    11:00 +21°C° 0 mm 6 mps 762 mmHg 55%
    12:00 +22°C° 0 mm 6 mps 762 mmHg 53%
    13:00 +23°C° 0 mm 6 mps 761 mmHg 52%
    14:00 +24°C° 0 mm 6 mps 761 mmHg 50%
    15:00 +25°C° 0 mm 5 mps 760 mmHg 52%
    16:00 +25°C° 0 mm 5 mps 760 mmHg 54%
    17:00 +25°C° 0 mm 5 mps 760 mmHg 55%
    18:00 +22°C° 0 mm 5 mps 760 mmHg 61%
    19:00 +21°C° 0 mm 4 mps 759 mmHg 67%
    20:00 +19°C° 0 mm 4 mps 759 mmHg 73%
    21:00 +19°C° 0 mm 4 mps 759 mmHg 74%
    22:00 +18°C° 0 mm 4 mps 759 mmHg 74%
    23:00 +17°C° 0 mm 5 mps 759 mmHg 75%

    24 August, Friday

    Time Temperature Precipitation Wind Pressure Humidity
    00:00 +17°C° 0 mm 5 mps 759 mmHg 76%
    01:00 +16°C° 0 mm 5 mps 758 mmHg 78%
    02:00 +16°C° 0 mm 5 mps 758 mmHg 79%
    03:00 +16°C° 0 mm 5 mps 758 mmHg 79%
    04:00 +16°C° 0 mm 5 mps 757 mmHg 80%
    05:00 +16°C° 0 mm 5 mps 757 mmHg 80%
    06:00 +16°C° 0 mm 5 mps 757 mmHg 78%
    07:00 +17°C° 0 mm 5 mps 757 mmHg 76%
    08:00 +19°C° 0 mm 5 mps 756 mmHg 74%
    09:00 +21°C° 0 mm 6 mps 756 mmHg 70%
    10:00 +23°C° 0 mm 6 mps 756 mmHg 66%
    11:00 +24°C° 0 mm 6 mps 756 mmHg 62%
    12:00 +26°C° 0.1 mm 6 mps 755 mmHg 61%
    13:00 +27°C° 0.1 mm 6 mps 755 mmHg 59%
    14:00 +28°C° 0.1 mm 6 mps 754 mmHg 58%
    15:00 +26°C° 1 mm 5 mps 754 mmHg 65%
    16:00 +25°C° 1 mm 5 mps 754 mmHg 71%
    17:00 +23°C° 1 mm 5 mps 754 mmHg 78%
    18:00 +22°C° 1.3 mm 4 mps 754 mmHg 83%
    19:00 +21°C° 1.3 mm 4 mps 754 mmHg 88%
    20:00 +20°C° 1.3 mm 3 mps 754 mmHg 93%
    21:00 +19°C° 0.2 mm 3 mps 754 mmHg 94%
    22:00 +19°C° 0.2 mm 3 mps 754 mmHg 95%
    23:00 +18°C° 0.2 mm 3 mps 754 mmHg 96%

    25 August, Saturday

    Time Temperature Precipitation Wind Pressure Humidity
    00:00 +17°C° 0 mm 3 mps 755 mmHg 96%
    01:00 +16°C° 0 mm 3 mps 755 mmHg 95%
    02:00 +16°C° 0 mm 2 mps 755 mmHg 95%
    03:00 +15°C° 0 mm 2 mps 756 mmHg 95%
    04:00 +15°C° 0 mm 2 mps 756 mmHg 95%
    05:00 +15°C° 0 mm 2 mps 756 mmHg 95%
    06:00 +15°C° 0 mm 2 mps 756 mmHg 92%
    07:00 +16°C° 0 mm 2 mps 756 mmHg 89%
    08:00 +17°C° 0 mm 2 mps 757 mmHg 85%
    09:00 +18°C° 0 mm 2 mps 757 mmHg 77%
    10:00 +21°C° 0 mm 1 mps 757 mmHg 69%
    11:00 +22°C° 0 mm 1 mps 757 mmHg 60%
    12:00 +22°C° 0 mm 1 mps 757 mmHg 63%
    13:00 +21°C° 0 mm 1 mps 756 mmHg 65%
    14:00 +20°C° 0 mm 1 mps 756 mmHg 67%
    15:00 +18°C° 1.4 mm 2 mps 756 mmHg 76%
    16:00 +17°C° 1.4 mm 2 mps 756 mmHg 84%
    17:00 +14°C° 1.4 mm 3 mps 756 mmHg 92%
    18:00 +15°C° 2.1 mm 2 mps 756 mmHg 93%
    19:00 +15°C° 2.1 mm 2 mps 756 mmHg 94%
    20:00 +14°C° 2.1 mm 2 mps 756 mmHg 94%
    21:00 +14°C° 0.4 mm 2 mps 756 mmHg 94%
    22:00 +14°C° 0.4 mm 2 mps 756 mmHg 95%
    23:00 +13°C° 0.4 mm 2 mps 756 mmHg 95%
    Show more